Location: *
(37.4917°N, 71.5558°E)
Time: 03:36:39
(UTC+00:00)

CZ-2C R/B - Pass Details

Date: 09 April 2020
Orbit: 501 x 569 km, 97.7° (Epoch: 31 May)

Event Time Altitude Azimuth Distance (km) Brightness Sun altitude
Rises 22:58:27 0° 3° (N) 2,763 6.8 -20.9°
Reaches altitude 10° 23:00:42 10° 356° (N) 1,855 5.8 -20.5°
Enters shadow 23:04:09 38° 299° (WNW) 860 3.5 -19.9°
